Regional Weather Roundup
Issued by NWS

Home | Current Version | Previous Version | Text Only | Print | Product List | Glossary Off
Versions: 1 2 3 4 5 6 7 8 9 10 11 12 13 14 15 16 17 18 19 20 21 22 23 24 25 26 27 28 29 30 31 32 33 34 35 36 37 38 39 40 41 42 43 44 45 46 47 48 49 50

000
ASUS43 KLSX 030210
RWRMO

WEATHER SUMMARY FOR MISSOURI
NATIONAL WEATHER SERVICE SPRINGFIELD MO
900 PM CDT WED SEP 02 2015

NOTE: "FAIR" INDICATES FEW OR NO CLOUDS BELOW 12,000 FEET WITH NO
       SIGNIFICANT WEATHER AND/OR OBSTRUCTIONS TO VISIBILITY.
       CURRENT SKY AND/OR WEATHER CONDITIONS ARE NOT AVAILABLE FOR
       CHILLICOTHE AND FARMINGTON.

MOZ001>031-035>038-043-044-053-054-030300-
...NORTHERN AND WESTERN MISSOURI...

CITY           SKY/WX    TMP DP  RH WIND       PRES   REMARKS
KANSAS CTY INT CLEAR     76  69  79 S9        29.94R
KANSAS C DTWN  CLEAR     82  69  64 S8        29.93R
LEE`S SUMMIT   CLEAR     81  67  62 S7        29.96R
ST JOSEPH      CLEAR     78  70  76 S10       29.91R
CHILLICOTHE      N/A     80  71  74 S5        29.95R
KIRKSVILLE     MOCLDY    76  69  79 S8        29.97S

$$
MOZ066>068-077>081-088>096-101>105-030300-
...SOUTHWEST MISSOURI...

CITY           SKY/WX    TMP DP  RH WIND       PRES   REMARKS
SPRINGFIELD    CLEAR     77  68  73 SE5       30.00R

$$
MOZ032>034-039>042-045>050-055>058-069>072-030300-
...CENTRAL MISSOURI...

CITY           SKY/WX    TMP DP  RH WIND       PRES   REMARKS
COLUMBIA       CLEAR     77  69  76 SE7       29.99R
JEFFERSON CITY CLEAR     79  65  62 E5        29.98R
ROLLA          CLEAR     74  66  76 SE6       30.01R
SEDALIA        CLEAR     76  70  82 S6        29.98R
WHITEMAN AFB   PTCLDY    78  68  71 S6        29.96R
WARRENSBURG    CLEAR     77  66  69 SE3       29.95R
OSAGE BEACH    CLEAR     79  64  61 SE3       30.00R

$$
MOZ051-052-059>065-030300-
...EAST CENTRAL MISSOURI...

CITY           SKY/WX    TMP DP  RH WIND       PRES   REMARKS
ST LOUIS INTL  PTCLDY    85  68  56 CALM      30.01R
SPIRIT OF STL  CLEAR     76  74  93 CALM      29.99R
ST CHARLES     CLEAR     77  72  84 CALM      29.98R

$$
MOZ072>076-082>087-097>100-106>115-030300-
...SOUTH CENTRAL AND SOUTHEAST MISSOURI...

CITY           SKY/WX    TMP DP  RH WIND       PRES   REMARKS
CAPE GIRARDEAU PTCLDY    74  70  87 CALM      30.00R
FARMINGTON     PTCLDY    75  72  88 CALM      30.06R
POPLAR BLUFF   PTCLDY    75  72  90 N3        29.99R
WEST PLAINS    CLEAR     77  68  73 CALM      30.05R

$$


USA.gov is the U.S. government's official web portal to all federal, state and local government web resources and services.